Location: Antioch Church
(34.9543°N, 88.5145°W)
Time: 11:23:53
(UTC+00:00)

Cosmos 1603 - Pass Details

Date: 11 December 2019
Orbit: 830 x 860 km, 71.0° (Epoch: 22 January)

Event Time Altitude Azimuth Distance (km) Brightness Sun altitude
Rises 00:12:36 0° 176° (S) 3,389 7.0 -17.9°
Reaches altitude 10° 00:15:12 10° 168° (SSE) 2,463 6.2 -18.4°
Maximum altitude 00:20:18 35° 104° (ESE) 1,337 4.3 -19.4°
Enters shadow 00:20:53 35° 91° (E) 1,359 4.2 -19.6°
